[[{"header":{"parameterUnit":"m.s-1","parameterCategory":1,"la1":30.2991,"la2":30.254,"lo1":-89.0895,"lo2":-89.0444,"dy":0.0017,"dx":0.0017,"nx":28,"ny":28,"refTime":"2024-10-16T03:00:00:Z","depth":0,"parameterNumber":2,"parameterNumberName":"U-component_of_WINDS"},"data":[0,0,0,0,0,0,0,0,0,0,0,0,0,0,0,0,0,0,0,0,0,0,0,0,0,0,0,0,0,0,0,0,0,0,0,0,0,0,0,0,0,0,0,0,0,0,0,0,0,0,0,0,0,0,0,0,0,0,-4.3821,-4.3821,0,-4.3867,-4.3867,-4.3868,-4.3763,-4.376,-4.3757,-4.3754,-4.38,-4.3804,-4.3809,0,0,0,0,0,0,0,0,0,0,0,0,0,-4.3641,-4.3645,-4.3821,-4.3821,-4.3822,-4.3867,-4.3867,-4.3868,-4.3764,-4.376,-4.3756,-4.3752,-4.3799,-4.3804,-4.3809,0,0,0,0,0,0,0,0,0,0,0,0,0,-4.3707,-4.3647,-4.3821,-4.3776,-4.3772,-4.3867,-4.3867,-4.3868,-4.3765,-4.376,-4.3755,-4.375,-4.3797,-4.3803,-4.381,-4.395,0,0,-4.383,-4.3832,0,0,0,0,0,0,0,0,-4.3703,-4.3713,-4.3782,-4.3779,-4.3775,-4.3804,-4.3821,-4.3896,-4.3766,-4.3768,-4.3753,-4.3748,-4.3805,-4.3811,-4.3831,-4.3952,-4.3954,-4.383,-4.3834,-4.3837,-4.3839,0,0,0,0,0,0,0,-4.3699,-4.3711,-4.3839,-4.3783,-4.3779,-4.3752,-4.3756,-4.3835,-4.3814,-4.3767,-4.376,-4.3766,-4.3803,-4.3825,-4.3831,-4.3955,-4.383,-4.3836,-4.384,-4.3842,-4.4194,-4.4199,0,0,0,0,0,0,-4.37,-4.3708,-4.3837,-4.384,-4.3726,-4.376,-4.3764,-4.38,-4.3813,-4.381,-4.3771,-4.3761,-4.3816,-4.3823,-4.3832,-4.3998,-4.3837,-4.3843,-4.3847,-4.4189,-4.4195,-4.4201,0,0,0,0,0,0,-4.3697,-4.3713,-4.3836,-4.3772,-4.3786,-4.3768,-4.3809,-4.3803,-4.3825,-4.3816,-4.3811,-4.3797,-4.3812,-4.3823,-4.3922,-4.3998,-4.3846,-4.3852,-4.4182,-4.4191,-4.4198,-4.433,0,0,0,0,0,0,-4.3692,-4.3712,-4.3766,-4.3774,-4.379,-4.3926,-4.3814,-4.3808,-4.3837,-4.3825,-4.3839,-4.3837,-4.3809,-4.3912,-4.3928,-4.4004,-4.3857,-4.4175,-4.4186,-4.4195,-4.4319,-4.4342,-4.4362,0,0,0,0,0,-4.3686,-4.3801,-4.3769,-4.3785,-4.3856,-4.393,-4.3939,-4.3905,-4.3843,-4.3897,-4.3891,-4.3836,-4.3987,-4.3923,-4.394,-4.4019,-4.417,-4.4183,-4.4195,-4.431,-4.4338,-4.4361,0,0,0,0,0,0,-4.3803,-4.3802,-4.3766,-4.3887,-4.391,-4.3912,-4.3979,-4.3936,-4.3976,-4.3963,-4.3919,-4.3923,-4.403,-4.4034,-4.3964,-4.4156,-4.4068,-4.4084,-4.415,-4.4176,-4.4197,-4.4194,-4.3862,0,0,0,0,0,-4.3842,-4.3903,-4.3898,-4.4006,-4.4019,-4.3997,-4.4028,-4.4,-4.4021,-4.403,-4.403,-4.4053,-4.4105,-4.414,-4.4188,-4.4318,-4.432,-4.4381,-4.4402,-4.442,-4.4435,-4.4504,-4.4531,-4.4241,-4.4241,-4.4241,0,0,-4.3926,-4.3932,-4.3973,-4.4029,-4.4043,-4.4106,-4.4006,-4.4077,-4.4123,-4.404,-4.4134,-4.4135,-4.4157,-4.4273,-4.4323,-4.4279,-4.4515,-4.4435,-4.4449,-4.4455,-4.4519,-4.4547,-4.4571,-4.4249,-4.4248,-4.4246,0,0,-4.411,-4.4121,-4.4212,-4.4227,-4.425,-4.4234,-4.4256,-4.4265,-4.4263,-4.4356,-4.4295,-4.4349,-4.444,-4.4458,-4.4479,-4.4668,-4.462,-4.4685,-4.4796,-4.4864,-4.4887,-4.4907,-4.4976,-4.5001,-4.4699,-4.47,-4.47,0,-4.421,-4.4303,-4.4264,-4.4339,-4.4366,-4.4293,-4.4385,-4.4402,-4.4438,-4.4458,-4.4408,-4.452,-4.4529,-4.4648,-4.4694,-4.4713,-4.4737,-4.4684,-4.4887,-4.4907,-4.4925,-4.499,-4.5015,-4.4707,-4.4706,-4.4706,-4.4705,0,-4.4426,-4.4492,-4.4562,-4.46,-4.4634,-4.4717,-4.469,-4.4729,-4.4697,-4.4687,-4.4782,-4.479,-4.4838,-4.4864,-4.4834,-4.4978,-4.495,-4.4895,-4.4806,-4.4961,-4.5021,-4.5046,-4.4719,-4.4716,-4.4713,-4.4711,0,0,-4.4687,-4.4701,-4.4728,-4.4744,-4.4762,-4.4811,-4.4891,-4.4937,-4.4972,-4.4999,-4.5064,-4.5142,-4.509,-4.5114,-4.5085,-4.5145,-4.5295,-4.5081,-4.5081,-4.5122,-4.5455,-4.5498,-4.5527,-4.5262,-4.5266,-4.527,-4.5453,0,-4.487,-4.5007,-4.4973,-4.5109,-4.5169,-4.51,-4.5169,-4.5187,-4.5179,-4.5228,-4.5219,-4.5275,-4.5202,-4.5216,-4.5272,-4.5265,-4.5361,-4.5251,-4.5323,-4.5326,-4.5321,-4.5559,-4.5605,-4.5778,-4.5477,-4.548,-4.5483,0,-4.5102,-4.5139,-4.5281,-4.5289,-4.5312,-4.5375,-4.5415,-4.5463,-4.5482,-4.5472,-4.5498,-4.5457,-4.5534,-4.5444,-4.555,-4.5475,-4.5502,-4.5503,-4.5509,-4.5516,-4.5415,-4.5573,-4.5832,-4.5858,-4.552,-4.5517,-4.5514,0,-4.528,-4.5364,-4.546,-4.5475,-4.5487,-4.5533,-4.5539,-4.5553,-4.5583,-4.5618,-4.5637,-4.5679,-4.5703,-4.5737,-4.5708,-4.5645,-4.5819,-4.5726,-4.5813,-4.5814,-4.5855,-4.5853,-4.6123,-4.587,-4.587,-4.5869,-4.5869,0,-4.5489,-4.5579,-4.554,-4.5599,-4.5697,-4.5656,-4.5754,-4.5753,-4.5766,-4.5823,-4.5765,-4.582,-4.5777,-4.5828,-4.5806,-4.5897,-4.5908,-4.5902,-4.5895,-4.5909,-4.591,-4.5927,-4.5914,-4.5876,-4.5874,-4.5873,-4.5872,0,-4.5705,-4.5682,-4.5782,-4.5784,-4.5787,-4.586,-4.5861,-4.5915,-4.5902,-4.5976,-4.599,-4.597,-4.6027,-4.6001,-4.606,-4.6045,-4.6163,-4.6139,-4.6157,-4.6152,-4.6241,-4.6233,-4.6533,-4.657,-4.6292,-4.6295,-4.6297,0,-4.5841,-4.5908,-4.5917,-4.5952,-4.5963,-4.6018,-4.6049,-4.601,-4.6044,-4.607,-4.6122,-4.6173,-4.6213,-4.6306,-4.6297,-4.6342,-4.632,-4.6421,-4.6326,-4.6337,-4.6322,-4.6319,-4.6326,-4.6441,-4.6444,-4.6447,-4.6449,0,-4.6084,-4.6069,-4.6115,-4.6158,-4.6195,-4.6227,-4.6253,-4.6284,-4.6246,-4.6287,-4.6345,-4.6375,-4.6436,-4.6488,-4.6527,-4.6533,-4.6486,-4.6479,-4.6502,-4.6516,-4.6524,-4.6522,-4.6211,-4.6473,-4.647,-4.6469,-4.6467,-4.6466,-4.6265,-4.6321,-4.6337,-4.639,-4.6405,-4.6431,-4.6482,-4.6475,-4.6523,-4.6569,-4.6543,-4.661,-4.6626,-4.6674,-4.6686,-4.6737,-4.6697,-4.673,-4.6738,-4.6748,-4.676,-4.6515,-4.6744,-4.6743,-4.6743,-4.6742,-4.6742,0,-4.6506,-4.6512,-4.6561,-4.66,-4.6642,-4.6592,-4.6618,-4.6656,-4.6716,-4.6735,-4.6775,-4.6841,-4.689,-4.6884,-4.693,-4.6972,-4.6951,-4.6985,-4.6983,-4.6985,-4.6793,-4.6769,-4.7001,-4.7001,-4.7001,-4.7001,-4.7001,-4.7001,-4.6637,-4.673,-4.6717,-4.6817,-4.6822,-4.6888,-4.6907,-4.693,-4.6945,-4.7021,-4.7062,-4.7057,-4.7066,-4.7111,-4.7155,-4.7151,-4.7171,-4.7214,-4.7203,-4.7024,-4.6998,-4.6974,-4.6951,-4.7218,-4.7218,-4.739,-4.7392,-4.7393]},{"header":{"parameterUnit":"m.s-1","parameterCategory":1,"la1":30.2991,"la2":30.254,"lo1":-89.0895,"lo2":-89.0444,"dy":0.0017,"dx":0.0017,"nx":28,"ny":28,"refTime":"2024-10-16T03:00:00:Z","depth":0,"parameterNumber":3,"parameterNumberName":"V-component_of_WINDS"},"data":[0,0,0,0,0,0,0,0,0,0,0,0,0,0,0,0,0,0,0,0,0,0,0,0,0,0,0,0,0,0,0,0,0,0,0,0,0,0,0,0,0,0,0,0,0,0,0,0,0,0,0,0,0,0,0,0,0,0,-10.1758,-10.1759,0,-10.1864,-10.1865,-10.1866,-10.1733,-10.1729,-10.1724,-10.1719,-10.182,-10.1827,-10.1834,0,0,0,0,0,0,0,0,0,0,0,0,0,-10.1434,-10.144,-10.1758,-10.1759,-10.1761,-10.1863,-10.1865,-10.1866,-10.1734,-10.1728,-10.1723,-10.1717,-10.1818,-10.1826,-10.1835,0,0,0,0,0,0,0,0,0,0,0,0,0,-10.156,-10.1443,-10.1758,-10.1707,-10.1704,-10.1863,-10.1865,-10.1867,-10.1736,-10.1728,-10.1721,-10.1714,-10.1815,-10.1825,-10.1836,-10.2047,0,0,-10.1869,-10.1873,0,0,0,0,0,0,0,0,-10.1553,-10.1572,-10.1713,-10.1711,-10.1708,-10.1778,-10.1787,-10.1927,-10.1737,-10.1723,-10.1719,-10.1711,-10.1811,-10.1822,-10.1857,-10.2052,-10.2056,-10.187,-10.1876,-10.1881,-10.1884,0,0,0,0,0,0,0,-10.1545,-10.1567,-10.1799,-10.1716,-10.1712,-10.1677,-10.1687,-10.1813,-10.1806,-10.1724,-10.1715,-10.1729,-10.1808,-10.1847,-10.1859,-10.2058,-10.1869,-10.1879,-10.1886,-10.189,-10.243,-10.2437,0,0,0,0,0,0,-10.1543,-10.1561,-10.1796,-10.1803,-10.1611,-10.1689,-10.17,-10.1763,-10.1805,-10.1804,-10.1735,-10.1723,-10.1833,-10.1846,-10.1862,-10.2112,-10.1881,-10.1891,-10.1897,-10.2422,-10.2431,-10.244,0,0,0,0,0,0,-10.1537,-10.1565,-10.1792,-10.1679,-10.1705,-10.1702,-10.1774,-10.1769,-10.1807,-10.1814,-10.1811,-10.1777,-10.1827,-10.1847,-10.2002,-10.2113,-10.1896,-10.1906,-10.2412,-10.2425,-10.2436,-10.2614,0,0,0,0,0,0,-10.1528,-10.1564,-10.1646,-10.1682,-10.1712,-10.1934,-10.178,-10.1776,-10.1827,-10.1812,-10.1852,-10.1852,-10.1823,-10.1987,-10.2013,-10.2124,-10.1914,-10.2402,-10.2418,-10.2432,-10.2598,-10.263,-10.2658,0,0,0,0,0,-10.1517,-10.169,-10.1651,-10.168,-10.1815,-10.194,-10.1957,-10.1923,-10.1837,-10.1918,-10.1922,-10.185,-10.2097,-10.2004,-10.2032,-10.2148,-10.2395,-10.2414,-10.2431,-10.2584,-10.2624,-10.2657,0,0,0,0,0,0,-10.1665,-10.1694,-10.1651,-10.1842,-10.189,-10.1918,-10.2019,-10.1966,-10.2037,-10.2019,-10.1972,-10.1982,-10.2148,-10.2163,-10.2059,-10.2354,-10.2232,-10.2256,-10.2339,-10.2376,-10.2405,-10.2398,-10.1923,0,0,0,0,0,-10.172,-10.1822,-10.1841,-10.2008,-10.2034,-10.2024,-10.2076,-10.2046,-10.2093,-10.2112,-10.2127,-10.2173,-10.226,-10.2319,-10.24,-10.2599,-10.2605,-10.2693,-10.2722,-10.2747,-10.2768,-10.2874,-10.2913,-10.2498,-10.2498,-10.2498,0,0,-10.1834,-10.1863,-10.193,-10.2038,-10.2072,-10.2176,-10.2041,-10.2157,-10.2233,-10.2128,-10.2277,-10.229,-10.2337,-10.2516,-10.2595,-10.2534,-10.2884,-10.277,-10.2789,-10.2797,-10.2896,-10.2935,-10.297,-10.251,-10.2508,-10.2506,0,0,-10.2096,-10.2129,-10.2271,-10.2308,-10.2362,-10.2354,-10.2388,-10.2424,-10.243,-10.2579,-10.2502,-10.259,-10.2743,-10.278,-10.2819,-10.3095,-10.3031,-10.3122,-10.3279,-10.3382,-10.3415,-10.3443,-10.3541,-10.3577,-10.3144,-10.3144,-10.3144,0,-10.2231,-10.2388,-10.235,-10.2473,-10.2522,-10.2435,-10.2577,-10.2613,-10.269,-10.2725,-10.2655,-10.2845,-10.2871,-10.3056,-10.3124,-10.3159,-10.3194,-10.3118,-10.3413,-10.3442,-10.3468,-10.356,-10.3597,-10.3155,-10.3154,-10.3153,-10.3152,0,-10.255,-10.266,-10.2767,-10.2847,-10.2908,-10.3039,-10.302,-10.3085,-10.305,-10.3048,-10.32,-10.3228,-10.3313,-10.3355,-10.332,-10.3536,-10.3496,-10.3421,-10.3297,-10.3519,-10.3605,-10.364,-10.317,-10.3166,-10.3163,-10.3161,0,0,-10.2907,-10.2966,-10.3006,-10.304,-10.3093,-10.3176,-10.3302,-10.3388,-10.3445,-10.35,-10.3604,-10.3735,-10.3666,-10.371,-10.3679,-10.377,-10.3986,-10.3683,-10.3683,-10.3738,-10.4223,-10.428,-10.4321,-10.3944,-10.3951,-10.3956,-10.4219,0,-10.3169,-10.3392,-10.3362,-10.3575,-10.3674,-10.3593,-10.3703,-10.3746,-10.3747,-10.383,-10.383,-10.3924,-10.3826,-10.3852,-10.3939,-10.3942,-10.4082,-10.3922,-10.4038,-10.4042,-10.4028,-10.4366,-10.4426,-10.4673,-10.4253,-10.4258,-10.4263,0,-10.3505,-10.3575,-10.3799,-10.3836,-10.3877,-10.3977,-10.4052,-10.4133,-10.4179,-10.4174,-10.4224,-10.4176,-10.43,-10.4174,-10.4343,-10.4235,-10.428,-10.4288,-10.4297,-10.4306,-10.4166,-10.4384,-10.4751,-10.4788,-10.4315,-10.4311,-10.4307,0,-10.3743,-10.3893,-10.4046,-10.4078,-10.4126,-10.4198,-10.422,-10.4259,-10.4313,-10.4378,-10.4412,-10.449,-10.4533,-10.4593,-10.4566,-10.4478,-10.474,-10.4612,-10.4737,-10.4738,-10.4796,-10.4793,-10.5175,-10.4827,-10.4826,-10.4825,-10.4825,0,-10.4038,-10.4178,-10.4154,-10.4248,-10.4401,-10.4365,-10.4516,-10.4528,-10.4564,-10.4657,-10.459,-10.4678,-10.4638,-10.4723,-10.4703,-10.4845,-10.4865,-10.4862,-10.4855,-10.4868,-10.4869,-10.4897,-10.4879,-10.4835,-10.4833,-10.4831,-10.4829,0,-10.433,-10.432,-10.4481,-10.4514,-10.4525,-10.4636,-10.4662,-10.4749,-10.4746,-10.4864,-10.489,-10.4883,-10.498,-10.496,-10.5064,-10.505,-10.5229,-10.5201,-10.5215,-10.5208,-10.5334,-10.5322,-10.5748,-10.5801,-10.5419,-10.5423,-10.5426,0,-10.4519,-10.4625,-10.4669,-10.4728,-10.4757,-10.4853,-10.4907,-10.4874,-10.4934,-10.4994,-10.5073,-10.5164,-10.5235,-10.5392,-10.5395,-10.5475,-10.5447,-10.5591,-10.5458,-10.5468,-10.5448,-10.5442,-10.5452,-10.5617,-10.5621,-10.5625,-10.5628,0,-10.4855,-10.4845,-10.4928,-10.501,-10.5078,-10.514,-10.5195,-10.5247,-10.5218,-10.5287,-10.5387,-10.5442,-10.555,-10.564,-10.5714,-10.5733,-10.5676,-10.567,-10.5702,-10.5717,-10.572,-10.5719,-10.5286,-10.566,-10.5656,-10.5654,-10.5652,-10.5651,-10.51,-10.5191,-10.5237,-10.5331,-10.537,-10.5423,-10.5507,-10.5515,-10.5598,-10.5685,-10.566,-10.5772,-10.5813,-10.5907,-10.5936,-10.6021,-10.5967,-10.6015,-10.6027,-10.6039,-10.6055,-10.5708,-10.6034,-10.6033,-10.6033,-10.6032,-10.6031,0,-10.5433,-10.5459,-10.5546,-10.5627,-10.5701,-10.5643,-10.5701,-10.5766,-10.5867,-10.5912,-10.5983,-10.6097,-10.6184,-10.6194,-10.6276,-10.6342,-10.6318,-10.6365,-10.6359,-10.6364,-10.6099,-10.6062,-10.6383,-10.6383,-10.6383,-10.6383,-10.6383,-10.6383,-10.5614,-10.5764,-10.576,-10.5927,-10.595,-10.6062,-10.61,-10.6148,-10.6184,-10.6315,-10.6388,-10.6395,-10.6426,-10.6509,-10.6586,-10.6586,-10.6619,-10.6676,-10.6667,-10.6418,-10.6383,-10.635,-10.6315,-10.6684,-10.6684,-10.6925,-10.6927,-10.6929]}]]